Wind_Speed
3 1 2 4 2 5 3 2 4 6 6 9 9 6 3 1 2 3 4 2 2 1 3 4 4 4 4 4 4 4 5 4 3 4 5 4 4 2 3 4 3 3 3 3 4 6 9 14 19 22 23 25 26 28 29 30 31 31 32 31 30 29 28 28 29 29 28 26 24 22 22 21 20 19 19 20 19 19 19 19 19 18 18 18 19 20 20
3 2 3 3 1 4 3 2 3 4 3 6 7 6 6 3 3 2 1 4 4 3 3 3 3 3 3 2 3 3 5 6 6 6 5 4 2 1 2 3 3 4 4 4 6 8 8 10 14 17 20 21 23 25 27 28 29 29 30 30 30 30 30 30 30 29 27 25 23 22 22 21 20 20 20 19 20 20 20 20 19 17 16 16 17 18 18
2 3 2 2 1 3 2 2 3 4 3 4 5 5 5 4 3 4 4 4 4 3 3 4 4 3 3 3 4 4 4 6 8 8 6 4 4 3 2 3 4 4 5 6 8 10 12 13 13 15 17 20 22 23 25 26 28 28 29 29 29 30 29 29 28 27 26 25 23 23 23 22 21 21 20 20 20 20 21 20 19 16 15 15 15 14 15
3 3 4 4 1 4 3 3 4 4 3 2 2 3 3 4 3 1 1 1 1 1 3 4 5 5 6 6 5 6 5 5 7 8 7 6 6 5 5 4 4 5 5 6 7 9 11 12 13 14 16 18 21 23 24 23 23 24 26 27 27 25 22 22 24 24 23 22 21 20 20 20 20 21 21 21 21 21 22 21 19 17 15 14 13 13 13
3 4 4 3 2 4 3 4 2 1 0 0 2 1 4 4 4 2 1 1 2 3 5 5 6 6 6 5 4 4 4 4 6 7 7 7 6 5 5 5 5 5 5 6 8 10 10 11 12 14 16 19 21 22 22 22 21 21 21 20 21 21 17 17 20 20 19 18 17 17 17 16 17 18 19 20 19 18 17 15 13 11 10 9 10 11 11
3 5 4 3 3 1 4 5 2 3 3 2 1 1 3 4 3 1 0 2 2 4 7 5 5 5 4 3 3 2 2 2 4 5 5 5 5 4 4 4 4 4 6 8 9 12 14 14 14 13 15 16 16 16 18 20 21 22 20 17 16 18 17 16 15 15 16 15 14 14 13 13 14 14 16 15 13 10 8 7 7 8 10 12 11 11 10
1 3 5 3 2 4 5 5 4 2 5 5 3 0 1 3 2 2 2 2 3 2 3 5 4 2 5 5 5 6 5 3 4 6 6 6 7 7 6 6 6 6 8 10 10 10 12 14 13 11 11 12 12 13 16 18 18 18 18 15 14 15 15 13 12 12 12 12 12 12 11 11 11 10 8 5 4 5 6 7 10 14 16 15 9 6 6
0 2 3 2 5 6 4 5 4 1 3 4 3 2 4 3 4 4 2 1 3 2 1 2 6 5 3 5 6 8 9 7 6 6 6 7 8 7 6 7 7 7 8 9 10 9 10 13 14 13 13 14 13 14 16 17 16 16 16 14 12 12 12 10 9 9 8 7 7 7 8 8 8 7 6 6 6 3 6 5 4 7 9 8 7 7 9
1 2 1 2 3 4 3 3 3 2 2 3 4 1 5 4 5 5 4 4 4 3 1 2 1 6 4 3 4 7 9 9 9 8 8 9 9 8 9 9 9 8 9 9 9 10 10 12 14 15 16 16 16 15 16 16 16 15 15 14 13 12 11 10 8 8 8 6 4 2 3 5 6 5 4 4 3 5 8 7 6 9 10 9 10 12 14
2 4 1 2 3 2 4 5 3 1 3 5 6 3 4 5 5 6 6 7 5 3 2 2 3 3 5 2 4 6 8 8 9 10 10 11 11 11 11 11 11 12 11 11 12 13 14 13 11 12 14 16 19 19 19 20 19 17 15 14 14 12 11 9 8 7 6 5 4 3 3 3 1 1 1 2 3 2 3 5 8 12 13 11 8 7 8
2 4 2 2 2 3 6 6 5 2 3 5 6 4 4 5 6 7 6 7 7 4 2 1 3 1 4 1 2 3 7 8 9 9 9 11 13 14 14 14 14 15 15 15 15 16 16 13 10 11 13 16 18 17 16 18 19 18 17 16 14 13 11 10 9 9 9 8 7 4 2 1 3 5 4 2 3 4 2 1 3 7 9 7 5 5 5
3 4 2 2 3 3 4 5 5 3 3 6 7 2 5 5 5 6 6 6 6 4 2 3 3 1 3 4 1 3 6 8 9 10 9 10 13 14 14 15 15 15 16 17 17 17 16 12 10 12 15 18 20 18 18 18 18 16 15 16 17 16 14 13 11 10 10 10 9 8 5 4 5 5 5 4 4 4 2 1 3 4 4 3 3 2 1
3 4 2 2 4 4 5 5 5 4 3 5 4 3 6 4 5 4 4 5 4 3 3 2 1 1 2 6 6 5 6 8 10 11 12 14 15 15 15 15 16 17 17 17 18 17 15 13 12 14 18 21 22 21 22 22 21 18 18 18 18 17 17 16 15 14 13 12 10 10 9 7 6 6 6 5 4 3 3 3 2 2 3 4 5 5 3
2 3 2 1 4 4 4 3 3 3 3 2 3 5 3 3 6 4 3 4 4 3 3 3 2 3 6 8 8 6 7 7 8 9 12 14 14 16 17 16 17 17 16 16 18 17 16 15 15 17 21 24 24 23 23 21 18 18 19 18 18 19 19 18 17 16 14 13 12 12 11 9 9 9 8 7 5 5 6 7 7 6 6 7 8 8 6
2 2 2 1 2 3 2 3 1 2 3 4 4 1 2 2 5 4 3 3 4 4 4 5 6 8 8 8 8 7 7 7 7 9 10 11 11 13 16 17 17 17 16 17 18 18 17 17 18 19 22 24 24 24 23 19 16 18 19 18 17 18 19 19 18 17 15 14 13 13 11 10 11 11 9 8 7 7 7 8 9 9 8 8 9 9 8
3 3 1 3 4 4 2 2 3 3 4 4 4 3 1 1 4 4 3 2 3 5 7 8 9 9 8 8 8 7 6 6 7 8 10 10 11 12 14 15 16 17 17 18 18 18 18 19 19 21 23 23 23 22 20 16 15 16 16 15 15 16 17 17 17 16 15 14 13 13 12 11 11 11 10 8 8 7 7 7 8 10 10 9 9 9 8
3 5 5 4 3 3 3 3 3 3 4 3 1 4 3 3 3 4 4 3 3 6 9 9 8 7 6 7 6 6 6 6 6 8 10 12 12 12 13 14 15 16 17 18 18 18 18 18 19 20 21 22 21 19 16 15 15 15 15 15 16 17 17 17 16 15 14 13 12 11 11 11 12 12 10 8 6 5 5 5 6 6 7 8 8 7 7
1 2 3 1 1 3 3 2 2 1 4 5 4 2 1 4 4 4 5 5 5 6 8 8 7 5 6 6 6 6 6 6 7 10 12 13 14 14 13 13 14 15 16 17 18 18 17 17 17 17 18 20 19 17 15 14 14 14 14 15 16 16 15 15 14 14 13 13 12 11 10 10 11 11 10 8 6 4 3 3 3 3 3 4 5 5 5
1 1 2 2 2 4 4 1 1 4 7 7 8 7 3 2 6 6 6 7 7 6 6 8 8 6 7 7 6 5 6 6 8 11 12 12 14 14 13 13 14 15 16 16 16 17 17 15 15 16 17 17 17 15 14 13 12 12 13 15 15 14 14 13 12 11 11 11 11 10 10 10 10 10 9 8 7 5 3 2 1 1 2 1 1 1 1
2 3 4 2 2 4 4 1 3 4 6 7 9 9 7 4 5 5 7 9 7 5 6 8 8 7 7 7 6 5 5 6 8 10 12 13 15 14 13 13 14 14 15 16 16 16 16 14 14 15 16 16 15 15 15 14 12 12 13 13 13 13 13 12 12 11 11 11 10 10 10 9 9 9 9 8 7 6 5 3 1 1 1 2 2 3 3
1 3 3 2 1 2 5 3 5 5 5 7 9 9 8 8 8 5 3 7 8 7 7 8 9 8 6 6 7 6 5 5 8 10 13 15 15 15 14 14 14 15 15 15 15 15 15 14 14 15 15 15 14 14 14 13 12 13 12 11 11 12 12 12 11 11 11 10 10 9 9 8 7 7 7 7 6 5 5 4 3 2 2 2 2 3 4
1 4 5 4 3 2 1 1 4 5 6 10 8 5 4 6 9 9 8 5 5 7 7 8 9 8 5 7 8 7 6 7 9 11 13 14 14 14 15 15 15 16 16 15 15 15 14 13 14 14 14 13 13 13 12 11 11 12 13 11 11 11 11 11 10 10 9 9 8 7 7 7 7 6 6 6 6 5 4 4 3 3 2 1 2 2 3
5 6 7 6 5 4 3 4 4 5 6 8 6 4 2 5 6 4 6 7 4 7 6 7 10 8 6 9 11 8 7 10 12 12 13 13 12 12 12 13 14 14 14 13 13 13 12 12 12 12 12 12 12 13 12 10 9 10 11 11 11 9 8 8 8 7 7 6 6 5 5 5 5 5 5 5 6 6 6 5 4 3 3 2 3 4 5
2 4 7 6 4 5 6 6 6 7 7 7 6 5 3 3 5 8 7 4 3 5 8 8 11 12 11 12 12 10 9 11 13 12 12 12 12 10 10 11 12 12 12 11 11 11 10 9 9 10 10 10 10 11 12 12 11 9 9 9 8 6 5 5 5 5 6 5 5 5 5 4 4 4 5 5 5 5 6 5 4 3 3 3 4 5 5
2 4 6 5 4 6 7 4 4 6 9 10 7 5 6 6 7 12 10 2 1 7 10 9 11 15 16 15 14 14 12 12 13 14 13 11 10 9 9 9 10 10 10 10 9 9 8 7 7 8 9 10 9 10 11 13 13 13 12 11 9 7 5 5 4 4 5 5 4 4 4 3 3 4 5 5 5 4 4 4 3 3 3 3 4 5 6
4 6 7 5 5 7 7 5 4 3 7 11 10 7 9 13 13 14 13 9 8 13 16 14 13 16 19 19 18 18 17 16 16 16 15 12 10 8 8 8 8 8 8 8 8 8 7 7 6 6 7 9 9 9 9 11 12 13 14 13 11 9 7 7 6 6 5 5 5 4 4 4 4 4 5 5 5 4 4 4 3 3 2 3 3 4 5
7 9 10 8 5 3 3 3 5 5 7 11 13 11 13 18 19 17 16 16 16 18 19 19 20 21 21 22 23 22 21 21 20 19 19 17 13 10 8 7 6 7 7 7 7 6 5 6 7 7 8 8 8 7 7 7 9 10 11 12 11 10 9 9 8 8 7 7 6 6 6 6 6 6 6 6 5 5 5 5 5 5 4 2 2 2 3
8 7 7 7 8 7 4 3 8 8 8 12 16 15 15 17 17 15 13 13 15 18 18 19 23 23 20 22 24 23 22 22 21 20 19 18 17 16 14 12 11 11 11 11 10 9 9 9 10 11 11 10 9 8 6 6 6 7 8 9 10 10 10 10 10 10 9 9 8 7 7 7 7 8 8 8 8 8 7 7 6 6 6 5 3 0 2
7 4 4 5 8 9 8 9 9 8 8 11 14 15 15 13 11 9 7 8 12 14 14 17 23 23 21 22 23 22 20 20 19 19 19 18 18 19 19 19 19 18 17 17 16 15 14 15 15 15 15 13 12 11 9 8 7 8 8 8 8 8 8 9 10 11 11 11 10 9 8 8 8 9 10 11 11 11 9 8 8 7 7 8 7 4 4
4 5 7 7 9 11 11 10 8 7 7 8 9 10 11 12 10 7 6 9 11 11 12 17 21 21 22 23 23 22 22 21 21 21 21 20 19 18 17 17 19 19 19 19 18 17 16 16 16 17 16 14 13 13 12 11 11 11 10 10 10 9 9 9 10 10 11 12 11 11 11 11 11 12 12 12 12 12 10 9 9 8 8 9 10 9 7
6 7 10 9 9 11 11 9 8 7 7 7 8 8 8 10 10 7 6 7 9 10 14 18 19 19 21 23 24 25 26 24 23 24 23 22 21 19 17 17 18 19 18 17 16 15 15 14 15 15 14 13 12 12 12 12 12 12 12 12 12 11 11 11 12 12 13 13 13 13 13 13 13 13 12 12 11 10 10 10 10 10 10 10 12 12 10
10 9 9 8 7 8 9 7 7 8 6 7 9 9 8 9 10 8 7 8 10 13 16 17 18 19 22 24 25 26 25 24 23 23 22 21 20 19 17 17 17 16 15 14 14 13 12 12 12 11 10 10 10 10 11 11 11 12 12 13 13 13 13 13 13 14 15 15 15 15 15 15 15 15 14 13 11 10 10 11 11 11 11 11 12 13 12
12 9 7 7 7 8 7 7 7 8 7 7 8 9 9 11 13 11 10 12 14 16 17 17 18 21 23 24 24 24 23 22 21 20 20 19 18 16 15 14 14 14 13 12 11 10 10 10 10 9 9 9 9 9 9 10 10 10 11 12 13 14 14 14 14 14 15 15 16 16 16 16 16 16 16 15 13 12 12 13 13 13 13 13 13 13 14
14 12 13 13 12 11 11 8 7 7 6 5 7 9 11 13 15 15 16 17 16 16 17 19 20 22 23 23 21 21 20 18 16 16 17 17 15 14 13 12 12 12 12 10 10 10 10 10 10 9 8 8 8 8 9 9 9 9 9 10 10 11 12 13 13 13 14 14 15 16 16 17 17 17 17 17 16 15 16 16 16 15 15 14 14 14 15
9 9 12 13 12 13 14 11 9 8 7 6 6 8 11 15 17 17 17 18 18 19 21 22 22 22 21 20 19 18 18 17 15 15 15 14 13 11 10 10 10 10 10 10 10 10 9 9 9 8 7 7 7 8 9 9 10 10 9 9 9 9 10 10 11 11 12 13 15 16 17 18 19 19 19 20 20 19 19 18 17 16 16 16 15 14 15
10 9 8 8 11 14 15 14 13 12 11 10 9 10 12 15 18 18 18 20 22 23 24 23 22 21 20 19 19 19 19 17 16 15 14 12 11 9 8 9 9 9 9 9 9 8 7 7 7 8 8 8 9 9 10 10 10 10 10 10 10 11 11 11 11 12 12 13 15 16 17 19 19 19 19 19 21 21 21 20 19 18 17 18 16 15 16
13 13 11 10 12 15 15 15 17 17 15 14 14 15 16 16 18 20 21 23 24 24 23 23 22 21 20 20 19 19 17 15 14 13 12 10 9 8 8 10 10 9 9 9 9 9 8 8 9 10 10 11 12 12 12 12 12 11 11 11 11 12 12 13 13 14 14 15 16 17 17 18 19 19 19 19 20 22 23 23 22 20 19 20 19 17 18
12 15 16 15 16 16 15 16 19 21 19 16 14 16 19 20 21 22 23 22 22 22 22 21 21 21 21 19 18 16 14 12 11 10 9 8 7 8 10 12 12 11 10 10 10 11 11 11 11 12 12 13 13 13 14 14 13 13 13 12 12 12 13 13 14 16 16 16 16 17 17 18 18 19 19 20 21 22 23 23 22 21 20 21 20 19 20
10 12 15 17 17 17 16 16 18 21 23 21 17 16 19 22 23 23 23 21 21 21 21 21 21 20 19 18 16 14 12 10 8 8 8 7 8 9 12 12 11 10 10 10 11 11 12 12 13 13 13 14 14 14 14 14 14 14 14 14 14 13 13 14 15 15 15 15 15 16 17 17 17 18 19 20 21 21 22 22 21 20 20 20 20 21 22
9 11 15 16 16 17 17 16 15 16 21 24 24 22 22 24 25 24 22 21 19 19 20 21 21 19 17 16 15 13 10 8 7 7 7 7 8 9 10 10 10 9 9 10 11 11 12 13 13 13 14 15 15 15 15 14 14 14 13 13 13 13 13 13 12 12 12 12 12 13 14 15 16 18 19 20 21 22 21 20 20 19 19 19 20 21 22
11 14 16 16 16 17 18 18 17 16 17 20 24 25 25 26 26 25 23 21 20 19 19 18 18 17 17 15 14 12 10 8 8 7 7 7 8 9 9 9 9 9 9 10 11 11 11 12 13 14 15 15 15 15 15 14 14 14 13 12 12 12 12 11 10 10 11 12 13 14 15 16 17 18 18 19 20 20 20 20 19 19 20 20 21 23 24
14 17 17 16 16 18 19 20 20 19 17 19 22 24 24 25 26 25 23 22 20 18 16 15 15 15 15 14 13 12 11 10 9 9 8 8 8 8 6 6 7 8 8 9 9 10 11 12 13 14 15 15 15 14 15 14 14 14 13 13 12 12 12 11 11 12 13 13 14 14 15 16 16 17 17 17 17 17 17 16 15 16 16 16 18 20 23
17 19 17 16 17 19 20 21 22 21 19 19 21 24 24 24 25 25 23 21 19 17 16 15 15 14 14 13 13 12 11 10 10 10 9 9 7 6 6 6 6 6 7 8 9 10 11 12 13 13 13 13 14 14 14 14 14 14 13 13 12 12 12 12 12 12 12 11 12 12 13 13 13 14 13 13 12 12 11 10 10 10 10 11 13 14 14
19 20 19 19 20 21 21 21 22 22 20 19 21 23 24 24 23 23 21 19 17 16 16 16 15 14 13 13 12 12 12 11 10 10 10 9 8 6 6 6 5 6 6 7 8 10 11 11 12 11 11 11 12 12 13 13 13 14 14 13 12 12 11 11 11 11 10 9 10 10 11 11 10 10 9 9 8 7 6 5 5 4 6 9 11 11 10
16 18 21 24 23 22 22 22 23 23 23 23 22 23 23 22 20 19 18 17 16 16 16 15 15 15 14 13 13 13 12 11 9 7 7 7 6 6 6 6 6 6 6 6 7 8 9 10 10 10 10 10 10 10 11 12 12 13 13 13 12 11 10 10 10 9 8 8 8 9 9 9 8 8 7 6 5 5 4 3 3 3 5 7 9 9 8
17 18 22 23 22 21 23 25 26 28 28 25 21 19 20 20 19 17 16 16 17 16 16 15 15 14 14 15 16 15 13 10 7 6 5 6 7 7 7 6 6 6 5 6 6 7 7 8 9 9 9 9 9 9 10 11 12 12 11 11 11 10 9 9 9 9 8 8 8 8 7 7 7 6 6 5 5 5 4 3 4 4 5 7 8 8 8
21 20 21 22 22 23 26 28 29 28 25 21 17 17 19 20 19 17 16 17 17 16 14 13 13 12 12 13 14 14 13 12 9 7 7 8 8 8 6 6 5 4 4 5 5 5 5 7 8 8 8 8 8 9 10 11 11 11 11 11 10 10 10 10 10 9 9 9 9 9 8 7 7 7 6 6 5 5 4 3 3 3 4 5 6 8 8
23 22 22 24 26 27 28 28 26 22 19 18 19 20 21 20 19 18 18 17 17 16 14 12 12 11 11 10 10 10 10 10 9 9 9 9 8 7 6 6 5 4 4 4 3 3 4 5 6 7 7 7 8 8 9 10 10 11 11 11 11 11 11 11 10 10 10 10 10 10 9 8 8 7 7 6 5 5 4 3 2 0 2 3 4 6 7
24 24 24 26 27 26 25 23 20 17 18 20 22 23 23 21 19 19 19 18 17 15 14 12 11 11 11 10 9 8 7 6 6 9 11 11 9 8 8 8 7 6 6 5 5 4 4 4 4 5 5 6 7 7 8 8 9 9 9 9 9 9 9 9 9 9 9 9 9 8 8 7 7 6 5 5 5 5 4 3 2 0 1 2 4 5 6
24 24 23 23 24 25 25 22 19 19 21 23 24 24 24 23 21 19 19 18 17 15 13 12 11 11 11 10 9 9 8 6 7 11 13 12 11 11 10 9 8 7 6 6 6 5 5 4 4 4 4 5 5 5 6 7 7 8 8 8 8 7 7 7 7 7 7 8 8 8 7 6 5 4 4 4 4 3 2 1 0 1 2 3 3 4 5
25 24 24 24 25 27 27 25 25 25 25 25 25 25 25 24 22 21 20 19 17 15 14 12 11 10 11 11 11 10 10 10 11 12 12 12 12 11 10 8 7 6 6 6 6 5 5 4 4 4 4 4 3 4 5 6 7 7 8 8 8 7 6 6 6 7 7 7 7 7 6 6 5 5 5 5 5 4 4 3 3 2 3 4 4 5 6
24 25 24 24 23 23 22 23 25 26 26 25 25 25 24 23 22 20 19 18 17 16 15 14 13 12 12 12 12 12 12 12 12 12 11 11 10 10 9 8 7 6 6 5 5 4 3 3 3 3 3 3 3 3 3 3 4 5 6 7 7 6 5 5 6 6 6 6 7 6 6 5 5 5 5 5 5 5 5 4 3 3 3 3 4 4 5
Wind_Direction
288 170 248 272 173 144 145 32 1 349 14 41 38 6 336 85 156 247 293 17 95 218 344 6 2 359 2 12 27 65 102 102 95 92 81 59 42 63 130 134 122 119 133 145 159 187 191 180 177 181 185 189 191 191 193 196 199 201 202 203 205 209 210 211 216 220 223 226 229 232 234 236 239 243 245 246 247 249 249 251 257 265 268 269 270 271 272
322 302 275 289 142 136 129 65 11 346 34 64 49 14 358 34 117 162 61 80 81 40 16 16 18 20 24 39 37 53 90 105 108 106 99 91 75 65 140 137 126 120 123 134 143 158 179 185 179 178 182 186 188 190 192 194 196 199 199 199 201 205 209 213 217 220 221 225 229 231 233 235 236 238 240 243 246 248 250 255 263 268 270 269 271 273 273
304 306 342 338 46 102 97 37 13 5 31 66 62 37 356 347 73 99 98 96 74 49 43 29 30 47 62 66 54 45 63 89 100 108 122 141 148 156 151 141 137 131 128 136 146 159 174 185 185 182 184 186 187 190 193 195 196 197 197 198 200 203 207 210 214 216 219 222 227 230 234 237 238 239 242 245 246 247 250 256 263 264 264 265 266 269 272
266 306 359 326 341 72 29 336 353 4 23 54 55 55 21 342 336 11 70 65 28 93 103 54 41 46 43 41 43 44 52 74 93 110 131 147 156 162 156 151 149 149 149 150 154 162 170 178 183 186 187 188 190 193 193 194 194 192 193 196 196 198 205 211 211 211 215 219 224 230 233 237 242 245 247 247 246 247 250 253 254 249 247 252 255 260 265
259 295 348 335 23 46 330 286 291 296 208 2 334 29 49 11 333 334 30 313 327 70 85 54 38 42 40 29 19 34 53 66 82 100 115 125 138 148 151 156 158 151 137 130 144 156 162 170 181 188 193 195 198 199 194 192 189 184 185 189 188 190 205 220 214 208 211 216 221 226 230 234 240 244 246 246 244 244 245 246 245 241 241 247 252 255 260
252 289 344 21 30 349 250 256 247 174 159 130 84 24 35 37 19 358 25 296 333 73 86 70 27 5 10 16 351 353 34 71 90 89 84 88 89 80 90 103 99 100 107 121 147 163 168 173 179 186 191 192 192 190 185 182 180 179 181 185 185 188 203 218 214 205 206 210 213 219 221 223 228 233 236 236 229 219 217 221 226 233 239 242 246 253 260
214 314 23 45 270 244 243 280 289 155 127 111 103 307 298 93 114 216 244 307 321 12 96 116 110 8 353 21 31 20 18 40 93 91 72 64 66 62 66 75 78 90 110 125 142 157 169 177 178 176 178 178 170 160 158 161 164 168 173 176 178 182 189 200 205 200 201 208 212 215 215 213 218 222 218 200 138 152 201 231 236 237 240 240 242 257 271
229 29 67 155 248 260 269 290 282 172 92 72 61 317 271 178 163 194 191 249 275 278 334 111 122 110 24 6 29 34 28 33 64 80 73 63 66 68 66 68 73 83 100 117 129 138 155 170 174 174 174 172 162 149 149 154 157 160 164 164 169 177 176 178 186 188 192 205 210 211 216 215 212 198 169 121 87 136 210 235 265 265 259 252 246 250 252
162 119 156 254 302 310 279 255 233 184 160 141 126 250 270 226 182 179 170 184 209 189 80 334 80 108 87 350 9 39 41 45 57 63 63 61 60 56 53 57 68 79 92 105 111 113 120 138 160 175 175 168 159 151 152 158 161 164 166 163 166 176 177 171 167 169 180 186 176 187 235 231 219 206 186 186 219 234 228 236 264 277 278 275 268 265 263
111 97 53 332 358 318 257 246 254 222 164 148 129 114 284 249 190 177 175 173 181 174 143 308 312 73 86 9 339 33 47 52 60 62 59 58 58 52 49 51 51 55 66 77 86 96 98 102 125 150 155 153 150 146 147 153 157 159 161 161 162 163 159 150 136 129 140 154 168 212 258 266 247 28 1 278 284 310 275 259 265 270 276 283 283 270 259
115 111 117 182 203 247 247 240 254 249 157 129 99 63 299 249 182 171 180 168 163 176 170 339 317 28 103 132 304 34 60 59 64 69 63 57 57 56 57 59 57 55 62 69 75 82 82 81 95 113 121 127 125 119 122 133 138 138 139 141 141 136 127 121 117 108 102 104 117 141 163 59 65 71 64 46 43 51 51 274 254 258 265 266 249 229 229
154 136 146 210 222 250 251 235 239 224 148 106 86 50 278 244 175 169 179 163 152 153 107 42 353 304 139 145 131 68 75 74 73 79 79 71 65 61 57 60 67 72 75 75 73 69 69 75 88 97 102 102 95 86 87 94 94 92 99 107 111 110 107 104 103 99 97 104 112 117 114 94 76 75 72 65 68 77 94 177 211 219 227 222 198 181 240
150 150 165 254 254 246 241 236 227 197 134 87 96 211 236 203 167 178 170 147 135 126 112 95 20 315 101 115 109 91 83 81 78 81 83 81 78 73 67 63 67 72 73 73 72 70 73 84 90 93 95 90 84 84 85 85 84 86 91 96 98 100 100 98 97 96 98 104 108 102 95 89 83 80 74 70 75 84 91 106 135 135 119 114 107 98 92
138 150 145 302 275 245 202 196 215 176 149 158 203 225 236 150 152 167 150 140 139 128 125 133 130 106 97 100 103 97 90 87 86 86 85 84 83 84 82 77 73 74 73 74 74 74 78 87 90 93 93 85 80 81 79 76 84 93 94 93 93 95 95 95 94 95 95 95 91 85 81 79 80 81 77 72 69 63 74 91 100 101 107 113 114 114 113
120 84 76 91 255 253 164 132 148 145 167 207 212 222 357 81 134 140 136 148 152 135 123 121 114 105 98 101 105 101 95 91 89 88 86 84 84 85 86 85 84 84 79 75 75 76 80 86 88 90 90 84 80 80 78 76 84 90 89 87 87 87 88 88 87 87 87 84 79 76 75 75 78 80 80 78 72 59 62 84 102 109 116 122 122 121 115
129 120 184 202 217 248 256 176 189 207 220 219 182 142 81 90 125 130 134 165 161 134 122 114 109 106 106 111 111 106 100 97 92 91 92 91 88 86 88 92 95 93 86 81 79 80 83 87 88 88 88 83 78 77 77 79 84 87 88 87 84 82 82 82 83 83 82 79 74 70 70 69 72 75 76 74 75 71 69 83 102 113 120 127 127 121 113
164 176 214 231 230 257 279 244 225 262 301 299 189 158 151 138 142 142 136 148 152 130 120 113 108 109 112 112 112 108 105 102 100 101 100 100 100 98 96 99 99 95 91 90 88 86 85 86 86 88 89 87 83 79 80 83 85 88 92 92 89 87 83 80 80 79 76 73 68 66 66 65 65 66 66 66 72 77 73 70 82 102 119 130 129 119 113
214 201 219 269 335 313 303 263 227 12 18 5 349 328 159 136 134 137 134 137 136 128 124 121 114 116 119 113 110 111 107 104 104 103 102 105 109 109 106 106 106 103 99 96 92 88 85 85 85 84 84 84 82 81 82 81 82 86 91 92 90 86 81 77 74 69 67 66 65 65 65 62 61 61 59 59 65 73 72 63 62 75 97 122 129 120 110
99 232 292 2 334 283 290 298 75 46 42 33 10 340 309 127 122 134 138 130 126 127 128 125 123 127 126 119 114 111 107 106 106 105 106 108 111 114 115 115 115 113 106 98 92 87 83 81 81 80 77 76 76 76 74 71 73 80 83 84 83 78 74 71 66 62 63 64 63 63 62 58 58 60 57 53 55 60 69 82 105 59 29 28 158 156 81
124 237 275 307 262 267 300 28 82 57 44 42 25 351 332 18 81 126 133 125 132 151 143 131 128 128 126 124 123 116 103 101 103 107 112 113 112 116 121 121 120 117 110 103 97 92 87 83 81 80 76 72 70 68 65 62 66 73 75 74 72 69 65 64 62 60 62 60 56 55 56 54 55 55 50 45 43 44 45 43 37 294 313 316 291 288 319
58 256 252 247 242 323 350 27 78 79 72 61 36 354 339 17 27 13 80 120 142 159 154 139 127 123 128 131 125 116 104 99 103 109 114 115 114 117 122 122 121 117 112 108 102 95 91 90 89 86 81 74 66 60 56 52 54 60 63 62 60 56 53 55 56 54 53 52 48 46 46 44 40 37 35 33 31 29 26 26 28 12 320 303 295 297 308
222 230 206 188 158 115 301 288 94 89 83 77 60 335 321 45 40 8 1 29 94 118 139 148 136 126 129 128 119 109 105 110 113 115 115 111 108 110 115 116 114 111 110 109 103 95 91 91 91 87 81 72 62 54 49 46 48 53 55 55 55 56 55 55 54 50 47 45 41 35 32 29 29 32 32 30 28 25 14 1 6 11 4 356 339 322 320
222 213 186 173 141 131 209 209 138 111 92 92 116 210 208 104 102 73 12 351 28 75 92 127 134 130 123 119 116 106 103 118 124 124 122 117 109 105 106 104 101 100 101 101 98 93 89 86 84 81 75 69 62 55 51 50 51 53 55 56 58 60 58 55 52 47 41 36 28 21 17 20 27 31 27 18 18 25 23 12 1 358 354 344 336 332 329
227 193 172 174 155 140 172 187 159 133 122 130 164 180 146 130 132 109 81 353 339 79 77 86 112 120 119 118 119 115 112 121 124 122 123 124 122 118 113 104 97 94 95 94 93 92 88 82 77 71 64 61 57 50 46 44 46 48 49 52 57 60 56 52 49 40 31 24 17 11 7 8 8 5 359 352 351 4 17 20 20 18 10 358 352 353 358
177 169 154 163 154 133 138 150 134 129 142 150 155 152 145 147 129 112 111 134 227 106 94 80 91 109 114 114 115 113 107 108 115 118 119 121 124 127 126 117 106 99 94 91 89 87 81 73 66 57 51 47 43 38 35 34 35 37 37 39 44 46 42 40 37 27 15 10 7 3 0 357 352 346 342 337 331 335 351 2 11 20 23 18 13 16 25
142 127 103 86 90 108 117 117 109 146 164 147 132 132 140 133 122 116 120 124 108 99 99 94 90 97 104 105 104 103 98 96 102 106 104 103 109 119 127 129 122 117 113 105 95 89 80 70 63 55 47 40 34 29 25 23 24 26 27 29 33 33 26 19 13 5 359 354 347 338 333 329 326 326 326 325 321 314 312 318 318 311 329 0 13 29 47
129 128 113 97 95 125 169 155 138 159 158 129 117 117 118 113 108 102 98 95 91 91 96 101 99 95 95 97 96 95 93 91 90 87 84 84 86 92 105 120 119 118 122 115 100 89 76 62 55 51 44 33 23 18 13 8 9 11 13 16 19 18 13 6 360 353 347 342 335 328 324 321 319 318 316 313 312 308 301 300 294 278 269 283 337 32 76
145 145 133 137 154 173 183 123 116 125 124 115 114 116 111 103 100 98 92 89 91 89 89 97 99 96 93 94 93 91 87 84 82 78 76 78 81 84 88 91 89 89 92 87 78 70 64 56 53 51 44 32 23 17 2 347 347 349 353 358 0 360 359 357 354 350 342 333 327 321 317 313 311 309 305 300 297 297 295 293 291 280 260 248 257 249 135
149 129 88 110 134 131 114 103 107 111 110 112 116 117 114 106 98 96 99 100 98 94 89 93 97 97 96 95 94 92 88 84 82 80 80 82 86 87 88 89 88 85 81 75 69 65 63 60 57 53 47 39 34 30 19 4 352 342 337 337 336 335 339 341 343 344 340 334 328 320 312 307 304 303 300 294 287 285 283 282 283 281 261 241 234 227 199
130 106 101 107 118 119 118 121 127 127 125 124 119 115 116 115 109 106 109 105 102 101 100 98 97 96 96 96 96 96 96 94 89 87 85 85 86 89 91 91 86 77 69 65 61 58 57 55 51 47 42 36 32 29 23 17 10 0 354 348 339 333 330 327 327 329 329 327 325 318 311 308 309 309 309 303 291 281 276 274 274 277 268 246 234 231 224
101 102 115 123 128 128 128 131 135 136 136 131 121 115 116 116 115 120 120 108 104 108 107 103 100 98 99 100 102 102 101 98 93 90 88 85 84 84 84 85 80 73 66 62 57 54 52 50 46 42 35 27 23 19 15 13 10 6 3 359 352 345 339 332 327 325 323 320 318 312 306 303 304 306 310 310 301 288 281 280 277 276 273 257 241 235 231
101 97 108 116 120 122 127 133 136 139 146 142 134 132 135 132 131 134 134 123 119 117 112 107 106 108 109 109 108 106 103 99 96 93 91 88 86 83 81 81 80 75 69 61 53 45 40 38 37 31 20 12 7 4 1 360 357 355 355 353 350 347 343 338 334 329 325 321 317 312 306 302 300 300 300 300 297 288 284 285 284 280 278 270 257 245 234
117 116 124 132 131 131 142 156 151 147 154 156 145 141 141 138 135 135 134 128 122 118 115 115 118 120 119 117 114 110 106 101 96 93 92 92 90 87 85 83 80 76 71 64 55 47 40 37 34 25 13 6 1 355 352 348 342 340 337 334 334 334 333 333 332 328 325 322 319 316 312 304 298 296 295 295 295 292 288 287 287 283 277 272 266 255 240
151 162 168 166 160 155 159 168 162 146 138 130 130 134 135 135 134 135 133 128 123 121 123 125 126 125 123 120 118 115 110 102 95 92 95 96 94 91 88 86 84 82 78 70 62 59 57 53 44 30 21 19 13 6 3 358 351 344 335 327 324 325 326 328 328 326 326 325 323 321 316 307 299 293 289 288 290 293 294 293 293 287 276 267 263 254 238
146 150 157 159 157 153 153 156 157 150 141 133 132 136 137 138 138 136 133 130 128 129 130 129 128 127 124 120 116 112 109 106 103 101 100 97 95 93 89 84 82 82 79 74 69 65 64 58 43 23 13 13 11 8 6 4 359 354 346 336 326 321 319 320 321 321 322 321 320 318 314 310 304 296 289 284 282 282 285 289 292 288 275 264 258 247 229
124 123 131 140 144 145 147 149 151 149 142 139 139 137 138 140 140 137 135 134 133 134 133 131 127 124 119 115 113 111 111 111 109 106 101 96 91 85 76 70 70 70 67 64 59 50 43 37 21 360 347 345 345 344 345 347 346 344 342 336 328 321 316 312 310 310 310 310 310 310 310 309 306 300 293 286 280 277 278 282 287 285 273 261 253 240 223
139 139 137 136 141 144 145 145 145 141 134 134 139 140 139 139 137 136 136 136 135 136 136 132 125 118 113 112 113 111 110 110 108 102 97 91 84 76 69 63 61 58 50 41 31 23 14 2 351 341 335 335 334 331 330 331 329 327 327 325 320 319 316 312 310 308 307 307 307 306 306 306 303 298 292 286 282 281 280 278 279 277 268 256 248 235 221
134 138 140 142 143 143 140 140 142 138 130 126 130 137 139 138 136 134 134 134 135 136 135 129 123 118 115 113 111 107 106 106 104 99 94 86 73 70 70 64 56 52 45 29 13 7 3 353 345 341 339 338 336 332 329 326 323 321 322 321 318 316 315 314 313 312 310 309 309 307 305 304 300 297 293 289 286 286 282 277 274 272 263 251 239 227 217
120 128 135 138 137 134 131 133 138 139 136 133 130 131 136 137 136 133 131 130 133 137 134 128 124 121 117 114 111 109 110 109 102 93 87 79 72 75 76 69 59 52 43 23 6 4 5 0 356 355 355 352 348 344 340 336 331 326 324 323 322 321 320 319 319 317 314 311 309 308 308 306 301 298 297 295 292 291 286 278 273 269 259 244 230 220 214
128 134 137 136 134 132 130 129 131 138 143 144 142 140 140 139 135 131 128 128 133 138 137 133 129 125 122 121 119 117 115 110 96 83 77 76 81 85 78 65 53 47 38 22 12 13 13 10 8 9 8 5 1 356 353 349 344 338 335 334 334 334 333 330 327 324 321 318 315 313 313 311 305 302 301 299 297 296 292 283 272 262 251 239 226 216 211
137 141 140 137 135 134 132 130 128 129 136 141 142 143 144 142 137 132 129 131 135 138 139 137 133 129 127 127 125 120 114 102 89 83 79 79 85 86 71 51 43 42 35 22 18 21 21 19 20 20 16 12 10 5 1 358 353 349 349 350 350 349 347 344 342 339 334 329 325 321 319 317 312 308 306 302 299 297 294 287 274 259 249 240 228 217 209
138 140 137 135 135 135 134 132 129 126 127 134 138 139 141 141 138 133 132 133 135 134 133 133 133 132 131 130 125 119 113 105 97 92 83 74 77 84 79 62 50 46 36 25 25 29 27 24 24 22 17 14 12 9 5 1 356 353 354 356 357 357 356 354 352 350 346 339 333 329 326 321 316 312 309 305 300 297 294 286 272 255 243 234 222 213 206
144 142 137 135 136 136 135 134 130 126 126 131 136 138 139 139 137 135 134 134 135 134 132 132 133 133 133 133 129 122 117 114 111 104 94 84 81 83 86 81 68 54 44 37 34 31 24 21 20 18 14 12 11 8 6 5 5 6 8 8 5 4 4 3 1 359 355 351 347 342 338 333 327 322 316 309 302 296 290 279 264 248 232 217 205 197 189
144 142 139 138 138 137 135 134 132 130 130 134 138 139 139 139 139 139 139 139 139 140 139 139 138 138 138 140 139 135 130 128 126 121 115 110 103 93 88 89 82 68 57 47 33 22 17 16 15 11 9 10 10 6 5 9 14 16 17 15 11 8 7 7 6 4 0 358 358 355 352 349 345 339 332 322 310 298 286 272 258 241 217 201 192 183 174
142 143 141 140 140 139 139 139 138 137 136 136 137 139 140 141 142 144 144 144 146 147 147 145 144 144 146 146 141 135 132 132 134 138 139 134 126 117 109 101 88 75 63 44 24 16 16 16 14 10 7 8 6 3 3 8 11 12 12 12 11 10 9 8 6 1 357 356 357 356 357 357 357 353 348 340 324 307 289 260 227 203 190 184 181 180 183
140 140 139 138 137 139 141 140 138 137 135 132 131 136 143 145 145 147 151 151 151 150 150 150 148 149 150 147 141 136 134 132 132 140 147 141 131 124 117 103 90 78 61 38 24 22 21 20 18 17 14 10 7 7 9 12 13 13 13 14 13 13 17 20 17 11 5 360 353 349 349 353 355 356 359 356 342 327 314 284 244 217 196 185 184 190 199
136 135 136 135 133 134 137 137 136 135 135 134 135 142 149 150 150 151 154 153 148 146 146 147 148 150 151 150 146 144 143 138 133 134 136 129 123 121 120 111 98 81 58 39 33 33 33 32 30 28 25 23 24 27 28 28 27 27 26 24 23 23 24 25 25 23 21 18 11 3 359 357 355 355 1 4 358 347 337 320 282 226 194 187 189 191 192
139 138 138 137 136 137 139 139 138 139 142 145 147 150 153 154 154 154 153 149 145 142 142 144 146 149 152 151 149 146 141 135 135 143 145 138 129 127 128 123 109 93 77 65 60 61 60 53 44 37 37 42 48 50 45 39 36 34 32 30 30 30 29 30 30 30 29 30 29 24 20 17 14 10 13 21 29 32 26 13 5 162 174 188 192 186 181
139 138 137 138 139 141 142 142 143 147 150 150 150 153 156 157 155 155 155 152 147 145 146 147 149 152 155 155 155 152 146 136 139 146 145 139 134 133 131 125 118 109 97 87 81 79 80 73 54 44 49 59 63 61 54 44 38 35 34 30 29 28 28 30 32 32 31 33 35 35 36 37 35 28 26 32 42 49 50 44 38 92 179 191 196 195 195
138 138 141 145 148 150 152 153 154 156 157 156 156 158 160 158 155 156 159 158 155 153 154 152 151 155 160 161 161 162 160 150 143 142 140 136 133 132 129 126 125 119 106 96 90 85 82 80 69 59 64 73 69 59 51 47 42 39 35 30 25 21 21 26 30 31 31 29 27 26 28 32 32 27 21 18 18 23 34 37 316 236 232 233 232 229 226
147 149 153 156 159 160 162 164 164 163 163 162 162 162 163 162 160 161 166 167 165 163 163 162 161 163 165 163 163 165 163 156 151 148 143 137 134 133 133 135 138 133 119 108 103 97 89 88 84 77 81 89 85 69 58 53 47 41 36 31 24 18 16 18 20 21 20 17 14 12 11 11 10 9 6 359 350 341 331 321 308 288 271 266 259 250 242
154 155 155 156 158 160 163 166 167 167 166 165 164 165 166 165 163 163 169 175 176 175 175 175 175 174 173 170 168 166 163 160 160 160 155 147 145 148 152 156 158 153 145 136 131 121 109 101 93 86 87 99 107 104 93 65 40 29 27 23 19 14 9 3 1 3 6 8 7 6 4 0 357 359 358 351 338 326 318 313 312 312 304 286 263 247 241
Height
801 802 800 800 802 805 811 813 808 806 805 806 810 810 807 808 806 801 802 802 800 797 793 791 790 787 785 783 782 782 782 782 781 782 783 785 786 786 784 784 785 785 786 786 787 789 789 789 789 789 791 794 796 798 800 802 804 806 808 811 814 818 819 820 822 824 826 828 830 831 833 834 836 837 839 841 842 843 844 845 845 846 847 848 848 849 849
805 805 803 803 804 804 807 812 811 809 807 807 809 809 805 803 804 803 802 801 799 796 792 790 788 786 784 783 781 781 782 783 784 785 786 787 788 789 787 786 785 785 785 786 787 788 790 791 791 790 792 794 796 799 800 801 803 805 807 809 812 814 816 817 820 822 824 826 828 830 831 832 834 835 837 838 840 842 843 843 844 845 846 846 847 847 847
808 803 801 802 803 804 804 807 809 808 806 805 808 810 808 804 803 800 799 802 801 794 790 789 787 784 783 783 783 783 783 783 784 787 788 788 789 789 788 786 785 785 785 785 786 787 788 790 791 792 793 795 797 799 800 801 802 804 806 809 811 812 814 815 818 820 823 825 826 828 829 831 832 834 835 836 838 840 841 842 843 844 844 845 845 846 846
810 805 804 804 801 803 805 804 806 807 806 806 809 810 809 809 808 803 802 805 803 795 790 790 788 787 788 787 786 785 784 783 785 787 789 788 788 788 787 786 785 785 785 785 786 787 789 790 792 793 794 796 797 798 799 801 803 805 807 808 810 812 815 817 817 819 821 823 825 827 828 830 831 833 834 835 836 838 839 840 841 842 843 844 844 845 845
810 808 810 807 803 809 812 807 805 809 809 809 811 809 807 809 810 808 808 809 803 794 791 794 794 792 791 790 787 785 785 784 784 785 787 787 787 786 785 784 784 785 785 786 787 788 790 791 792 793 793 795 796 797 798 800 802 805 808 809 810 812 816 820 819 818 820 822 823 825 826 828 829 831 832 833 834 836 837 839 840 841 842 842 843 843 844
808 811 810 808 813 820 817 808 804 806 807 808 812 812 808 807 807 807 809 807 801 795 792 795 799 798 794 791 788 786 785 784 784 784 784 785 785 785 784 784 785 786 786 787 787 787 788 789 790 791 793 794 795 796 798 800 802 805 808 810 811 813 816 819 819 819 820 821 822 824 825 826 828 829 831 832 833 833 835 837 839 840 840 841 842 842 843
809 811 811 817 825 821 811 806 803 802 803 804 808 810 807 806 807 806 807 807 803 798 793 792 796 799 797 793 790 788 786 784 785 785 785 786 786 786 786 786 786 787 787 787 788 788 788 788 789 791 793 794 796 797 798 801 803 805 807 810 813 814 815 817 819 819 819 821 822 824 825 826 827 829 830 832 833 834 834 836 837 837 838 839 841 842 842
814 813 817 823 823 814 807 806 804 801 803 805 808 810 806 804 805 805 806 807 803 799 798 794 791 794 798 799 795 791 790 787 787 788 788 788 789 788 788 788 788 789 788 788 789 789 790 790 791 793 794 795 797 798 798 800 803 805 808 810 813 815 815 815 817 817 819 821 823 824 825 825 826 828 829 831 833 835 836 837 838 838 839 840 841 841 841
819 819 822 821 816 813 809 804 800 799 800 802 808 812 805 800 802 803 804 805 803 799 798 797 793 791 798 805 801 794 793 791 790 791 791 791 792 792 792 792 791 791 791 791 791 792 792 792 792 793 794 795 796 798 798 800 803 805 807 809 811 814 816 815 816 816 818 821 823 825 826 826 826 827 828 829 832 834 834 835 837 838 838 840 840 840 839
823 822 822 823 823 818 809 801 796 794 794 795 801 810 806 797 797 800 801 802 802 798 796 798 797 793 798 809 807 798 796 795 793 794 794 794 794 795 795 796 796 796 796 796 796 796 795 795 795 795 795 795 796 797 798 799 802 805 808 810 812 814 815 815 815 817 818 821 823 824 825 826 826 828 828 829 830 832 833 834 834 835 836 837 838 838 838
822 819 819 825 825 814 802 797 793 794 796 794 800 812 807 793 793 798 797 798 799 798 797 799 799 796 801 811 810 801 798 798 796 797 797 796 797 798 798 800 800 800 800 800 800 799 798 799 799 798 798 798 797 799 800 802 804 806 809 811 813 814 815 815 816 818 820 821 823 824 824 825 826 828 829 829 829 830 832 832 833 833 833 835 836 837 837
817 816 818 822 818 806 798 795 793 795 794 792 806 820 807 789 791 796 793 795 797 796 798 800 800 799 801 807 808 803 801 800 799 799 799 799 801 802 801 802 802 801 802 802 802 802 802 802 802 802 802 801 801 804 806 806 809 811 813 814 814 815 816 817 818 819 820 822 824 825 825 825 826 827 827 828 829 829 830 831 831 832 833 834 834 835 835
815 817 817 819 812 800 795 794 792 793 795 800 814 816 796 785 792 794 791 794 795 795 798 800 801 801 799 800 804 804 803 802 801 801 801 801 803 804 805 806 805 804 804 805 806 806 806 806 805 805 805 804 806 809 810 810 812 815 816 817 816 817 818 819 820 821 822 823 825 825 826 826 826 827 827 827 828 829 830 830 831 833 834 833 833 834 834
818 817 816 819 812 797 791 794 792 792 799 807 807 797 786 786 792 792 793 794 793 794 798 800 800 801 800 801 804 805 805 805 804 803 803 803 805 806 807 808 808 808 809 809 810 810 810 810 809 808 807 807 809 811 812 813 816 817 817 818 819 819 820 821 822 823 824 825 826 827 827 828 828 828 828 828 828 828 829 830 831 832 833 833 834 835 836
819 821 820 820 813 798 791 795 795 793 798 798 791 787 788 790 790 792 794 794 793 795 798 799 800 800 801 804 805 806 806 806 806 806 806 806 807 808 808 809 810 811 812 812 812 813 813 813 813 812 810 810 811 812 814 817 819 819 818 820 822 822 822 822 823 824 825 827 828 829 829 830 830 829 829 829 829 830 830 831 832 833 833 834 835 836 836
812 815 814 810 804 798 794 794 794 792 791 788 785 787 789 789 790 793 793 793 794 794 795 798 800 801 803 805 806 807 808 807 808 809 809 809 810 810 810 811 812 813 814 814 814 815 816 816 816 816 815 814 815 816 818 821 822 821 822 823 824 824 824 824 825 826 827 829 830 830 831 831 831 831 831 831 831 832 832 833 833 834 835 836 836 836 836
803 804 802 800 798 799 797 795 793 791 788 787 787 786 786 788 790 790 791 793 794 793 794 798 800 802 805 805 806 808 809 809 810 811 811 811 812 812 813 814 814 815 815 816 817 818 818 819 819 820 819 819 819 820 822 824 825 825 825 826 827 827 827 827 828 828 829 830 831 831 832 832 832 831 832 832 833 834 834 835 835 835 836 837 837 837 837
800 799 798 798 799 799 797 794 793 791 789 789 790 788 786 786 786 787 789 792 793 793 794 797 801 804 805 805 807 809 809 811 812 813 813 814 813 814 815 816 816 817 818 819 819 820 820 821 822 822 823 823 824 825 826 827 827 828 828 829 829 829 829 829 829 830 831 831 832 833 833 833 832 832 833 834 835 835 836 836 837 837 837 838 838 838 838
800 799 798 798 799 799 796 792 790 790 789 789 793 795 791 786 785 787 788 788 792 795 795 796 800 804 804 806 808 809 810 812 813 814 816 816 816 816 817 818 819 820 820 821 822 822 823 823 824 824 825 825 826 827 828 829 830 830 830 831 831 831 831 831 832 832 833 833 834 834 834 834 834 834 835 836 836 837 837 838 838 838 839 839 839 839 839
800 799 798 798 799 798 795 791 789 790 789 788 792 798 796 790 788 788 786 787 792 796 795 796 799 802 804 806 808 809 811 812 813 816 817 818 818 818 819 820 821 821 822 824 824 825 826 826 827 827 827 828 829 829 830 831 831 831 832 832 833 833 833 834 834 834 834 835 835 835 835 836 836 837 837 837 838 838 839 839 839 839 839 840 840 840 840
802 801 799 799 799 797 794 792 791 792 791 788 792 800 800 795 793 793 790 788 791 794 795 795 797 801 804 806 807 809 811 812 814 817 818 819 820 821 821 823 823 823 824 825 826 827 828 829 829 830 830 831 831 831 831 832 832 832 833 833 834 835 835 835 836 836 836 836 837 837 837 838 838 839 839 839 839 839 840 840 840 840 840 840 840 840 840
800 797 793 794 795 795 795 793 791 792 791 790 797 804 803 798 798 799 797 793 792 793 794 795 796 800 804 806 808 810 812 814 816 817 819 820 820 821 823 825 825 826 827 827 828 829 830 830 831 832 833 834 834 834 835 835 834 834 835 835 836 836 837 838 838 839 839 839 839 839 840 840 840 840 841 841 841 841 841 840 840 840 840 840 840 840 840
789 785 786 789 789 791 794 793 791 791 791 793 801 806 803 799 801 803 804 803 799 796 796 797 797 799 803 806 809 811 813 815 817 818 819 820 821 823 825 826 826 827 828 829 829 830 831 832 833 834 835 836 836 837 837 838 838 838 838 838 839 839 840 840 841 841 841 841 841 842 842 842 842 842 842 842 842 842 841 841 841 840 840 840 840 840 840
781 780 783 786 785 787 791 791 789 790 792 796 801 803 801 801 803 802 804 807 805 800 799 801 801 801 804 807 809 812 815 817 818 820 821 822 823 825 826 827 828 829 830 831 832 832 833 834 835 835 836 837 837 838 839 839 839 840 840 841 841 841 842 842 843 843 843 843 843 843 843 843 843 843 843 843 842 842 842 842 841 841 841 840 840 840 839
778 780 782 784 783 785 789 790 790 791 795 798 800 801 801 802 803 802 805 809 808 803 801 803 805 804 806 808 811 813 816 818 820 821 823 824 826 827 828 830 831 831 832 833 834 835 836 836 837 837 838 838 838 839 839 839 840 840 840 841 842 842 843 843 843 844 844 844 844 844 844 844 844 843 843 843 842 842 842 842 842 842 841 841 841 840 840
778 781 783 785 786 787 789 791 793 795 797 798 799 802 803 803 803 805 808 810 809 805 803 805 808 808 808 810 813 815 817 819 822 823 824 826 828 829 830 832 833 833 835 836 836 837 838 838 839 840 840 840 840 840 840 841 841 841 841 841 842 842 843 843 843 844 844 844 844 844 844 844 844 844 844 843 843 843 843 842 842 842 842 842 841 841 841
779 780 782 788 793 792 790 790 792 794 797 797 797 800 803 802 803 805 807 808 808 807 807 808 809 810 812 813 814 816 819 821 823 824 826 828 829 830 832 833 834 835 836 837 838 839 840 840 841 841 842 842 842 842 842 842 842 842 842 842 842 843 843 843 843 844 844 844 844 844 844 844 844 844 844 843 843 843 842 842 842 842 842 842 842 841 841
779 779 779 783 789 791 790 790 791 794 796 796 797 800 802 802 804 806 808 809 810 810 811 811 811 812 814 815 816 819 821 822 824 826 828 830 831 832 833 834 835 836 837 838 840 840 841 842 842 842 843 843 843 843 843 843 843 843 843 843 844 844 844 844 844 844 844 844 844 844 844 844 844 844 844 843 843 843 842 842 841 841 841 841 841 841 841
779 780 780 781 784 788 790 793 795 797 798 799 799 801 802 804 807 809 810 811 812 812 814 814 814 814 816 818 819 821 823 825 828 829 830 832 833 833 834 835 836 837 837 839 840 841 841 842 842 842 843 844 843 843 844 843 844 844 844 844 844 844 844 844 844 844 844 844 844 844 844 844 844 844 844 843 843 842 842 842 841 841 841 841 841 841 841
781 781 782 784 787 789 792 795 798 799 800 801 802 803 804 805 808 811 812 812 813 814 815 816 816 817 819 820 822 824 826 828 830 831 832 834 834 835 835 836 836 837 839 840 841 841 842 842 842 843 844 844 844 844 844 844 844 844 843 844 844 843 844 844 843 843 843 843 843 843 843 843 843 843 842 842 842 841 841 841 841 840 840 839 840 840 840
782 783 784 787 789 790 793 797 800 801 802 802 803 805 806 807 809 812 814 813 814 816 816 817 818 820 821 823 825 827 828 830 832 833 835 836 836 837 838 838 838 840 841 842 843 843 843 843 844 844 844 844 844 844 843 843 843 843 843 843 843 843 843 843 842 842 842 842 842 842 842 842 842 841 841 841 840 840 840 840 839 839 839 838 838 838 839
783 787 788 790 791 793 796 798 800 802 803 803 803 805 807 807 809 812 813 814 815 817 817 818 820 822 824 825 827 829 830 832 834 835 837 838 839 840 840 840 841 842 843 844 844 844 844 845 845 845 845 845 845 844 844 844 843 843 843 843 842 842 842 842 842 841 841 841 841 841 841 841 841 840 840 840 839 839 839 838 838 838 837 837 837 837 837
782 788 791 791 792 794 797 798 799 801 803 802 803 804 806 807 808 811 813 814 816 817 818 820 822 824 825 827 828 830 832 834 836 837 839 840 841 842 842 843 843 844 845 845 845 845 846 846 846 846 846 845 845 845 844 844 844 843 843 843 843 842 842 842 841 841 840 840 840 839 839 839 839 839 839 838 838 838 838 837 837 836 835 835 835 835 835
773 777 780 783 784 787 791 795 798 800 802 803 804 805 806 807 809 811 813 814 816 818 820 821 823 825 826 828 830 832 833 835 837 839 840 841 842 843 844 844 845 845 846 846 846 846 847 846 846 846 846 846 845 845 844 844 844 844 843 843 843 843 842 842 841 841 840 840 839 839 838 838 837 837 837 836 836 836 836 835 835 835 834 834 834 833 834
770 772 775 778 780 782 786 791 795 797 800 802 805 806 807 808 809 811 813 815 816 819 821 822 824 826 828 829 831 833 834 836 838 840 841 842 843 844 844 845 845 846 846 846 847 847 847 847 847 847 846 846 846 845 845 844 844 844 843 843 843 843 842 842 841 841 840 840 839 838 838 837 836 836 835 835 834 834 833 833 833 833 832 832 832 832 832
772 774 778 781 782 784 786 789 792 795 797 800 804 806 808 809 810 812 814 816 817 819 821 823 825 827 829 831 833 834 836 838 839 841 842 842 843 844 844 844 845 845 846 846 846 847 847 847 846 846 846 845 845 844 844 844 843 843 843 842 842 842 841 841 840 840 840 839 838 837 837 836 835 835 834 834 833 832 832 831 831 831 831 830 830 830 831
773 775 778 781 783 785 787 789 792 794 797 800 803 805 808 810 812 813 815 817 818 820 822 824 826 828 830 832 834 835 837 839 840 841 842 843 843 844 844 844 844 845 845 845 846 846 846 845 845 845 844 844 843 843 843 842 842 841 841 841 840 840 839 839 839 839 838 838 837 836 836 835 834 833 833 832 832 831 831 830 829 829 829 828 828 828 829
775 776 779 781 783 786 788 790 792 794 797 801 804 806 808 810 812 814 816 817 819 821 822 824 826 828 831 833 835 837 838 839 840 841 842 842 843 843 843 844 844 844 845 845 845 845 845 844 844 843 843 842 842 842 841 841 840 840 839 839 838 838 837 837 837 837 836 836 835 835 834 833 832 832 831 830 830 829 829 828 827 827 827 826 826 826 827
776 778 780 782 784 787 789 792 794 795 797 800 804 807 809 810 812 814 816 818 820 821 823 825 827 829 832 834 836 837 839 840 840 840 841 841 842 842 842 843 844 844 845 845 845 844 844 843 843 842 842 841 841 841 840 839 839 838 838 837 837 836 836 836 835 835 835 834 834 833 833 832 831 830 829 829 828 827 827 826 826 825 825 824 824 825 825
776 779 781 783 785 788 790 793 796 797 798 800 803 806 809 811 812 814 817 819 821 823 824 826 828 831 833 835 836 838 839 839 839 839 840 840 841 841 842 843 844 844 844 845 844 844 843 843 842 842 842 841 840 840 839 838 838 837 836 836 835 835 835 834 834 834 833 833 832 832 831 830 830 829 828 827 827 826 825 824 824 824 823 823 823 823 824
776 779 781 783 786 788 790 793 797 799 801 802 804 806 809 810 812 815 818 820 823 825 826 827 829 831 833 835 836 837 838 838 839 839 840 840 841 842 843 844 845 845 845 845 844 844 844 843 842 842 841 841 840 839 839 838 837 836 836 835 835 834 834 833 833 833 832 832 831 831 830 829 828 827 826 826 825 824 824 823 823 822 822 822 821 822 822
777 779 782 784 787 789 791 794 797 800 803 805 806 808 810 812 813 816 819 821 824 826 827 829 830 831 833 835 835 836 837 838 839 840 840 841 842 843 844 845 846 845 845 845 845 844 844 843 843 842 842 841 840 840 839 838 837 837 836 835 835 834 833 833 832 832 831 831 830 830 829 828 827 826 826 825 824 823 823 822 822 821 822 822 822 822 821
776 779 781 784 787 790 792 795 797 801 804 807 809 810 812 813 815 817 820 822 824 826 827 829 830 832 833 834 835 836 838 839 840 841 842 843 843 844 845 846 846 846 846 846 845 845 844 844 843 843 843 842 841 840 840 839 838 837 836 836 835 834 833 833 832 831 831 830 830 829 829 828 827 826 826 825 824 823 823 822 822 822 821 821 822 823 823
776 778 781 784 788 790 793 796 798 801 805 808 810 812 813 815 817 819 821 823 825 826 828 829 831 832 833 834 835 837 838 839 840 841 842 843 844 845 845 846 846 846 846 846 845 845 845 845 844 844 843 843 842 842 841 840 839 838 837 836 835 835 834 833 832 831 831 830 830 830 829 828 828 827 826 826 825 824 823 823 823 823 823 823 823 824 825
779 780 781 784 787 790 793 796 798 801 805 808 811 813 815 816 818 820 822 823 825 827 828 829 831 832 834 835 836 837 838 839 841 841 842 843 844 845 845 845 846 846 846 846 845 845 845 845 844 844 844 843 843 842 842 841 840 839 838 837 836 836 835 834 833 832 832 831 831 831 830 829 829 828 828 827 827 826 825 825 824 824 825 825 826 826 827
781 783 784 786 788 791 794 796 799 802 805 808 812 815 816 818 820 821 823 824 826 827 829 830 831 832 834 835 836 837 839 840 841 842 842 843 843 844 845 845 845 845 846 846 846 846 846 845 845 845 844 844 843 843 842 841 840 839 838 838 837 836 835 834 833 833 833 832 832 832 831 830 830 830 829 829 829 828 828 827 826 826 826 827 827 828 829
780 784 786 788 790 793 796 798 801 804 806 809 812 815 817 819 821 822 824 825 826 828 829 830 831 833 834 835 836 837 839 840 841 842 842 842 843 844 844 845 845 845 846 846 846 846 846 846 846 845 845 845 844 843 843 842 841 840 840 839 838 837 836 835 834 834 833 833 833 833 832 832 831 831 830 830 830 830 829 829 828 828 828 828 828 829 830
780 783 786 788 791 794 797 799 802 804 807 809 811 814 817 819 821 823 824 826 827 828 829 831 832 833 834 836 837 838 839 839 840 841 842 842 843 843 844 844 845 845 846 846 846 846 847 846 846 846 846 845 844 844 843 843 842 842 841 840 839 838 837 836 835 835 834 834 834 834 833 833 833 832 832 831 831 831 831 831 831 830 830 830 830 830 831
780 783 787 789 792 794 797 800 802 805 807 809 811 814 817 819 821 823 824 825 826 828 829 831 832 833 834 836 837 838 839 839 840 841 841 842 843 843 844 845 845 846 846 847 847 847 847 846 846 846 846 845 845 844 844 844 843 843 842 841 840 839 838 838 837 836 835 835 835 834 834 834 834 834 834 833 833 832 832 832 832 832 832 832 832 832 832
781 784 787 789 791 794 796 799 801 804 807 809 811 814 816 818 820 822 824 825 826 828 830 831 832 833 834 835 837 838 838 839 840 840 841 842 843 843 844 845 845 846 847 847 847 847 847 846 846 846 846 845 845 845 844 844 843 843 843 842 841 840 839 839 838 837 837 836 836 836 836 835 835 835 835 835 834 833 833 833 833 833 833 833 833 833 833
780 783 786 788 790 793 795 797 800 803 806 808 810 813 815 817 818 821 823 824 826 828 829 831 832 833 834 835 836 837 838 839 840 840 841 841 842 843 844 845 846 846 846 846 846 846 847 846 846 846 846 845 845 845 844 844 844 843 843 842 841 841 840 840 839 838 838 838 837 837 837 837 836 836 836 836 835 835 835 834 834 834 834 834 833 834 834
780 782 785 788 792 794 797 799 801 803 805 808 810 812 814 816 818 820 822 824 826 827 829 830 831 832 834 835 836 836 837 838 839 840 841 841 842 843 844 845 845 846 846 846 846 846 846 846 846 846 846 845 845 845 845 844 844 843 843 842 842 841 841 840 840 839 839 838 838 838 837 837 837 837 837 836 836 836 835 835 835 834 834 834 834 834 834